Location: Newark
(45.8667°N, 9.7333°E)
Time: 02:09:13
(UTC+00:00)

A-11 Canister half - Pass Details

Date: 27 January 2020
Orbit: 1517 x 1683 km, 47.2° (Epoch: 19 February)

Event Time Altitude Azimuth Distance (km) Brightness Sun altitude
Rises 04:10:13 0° 291° (WNW) 4,673 - -27.6°
Reaches altitude 10° 04:13:18 10° 288° (WNW) 3,683 - -27.1°
Exits shadow 04:19:40 45° 262° (W) 1,976 9.1 -26.0°
Maximum altitude 04:22:17 58° 212° (SSW) 1,732 9.0 -25.5°
Drops below altitude 10° 04:31:20 10° 137° (SE) 3,711 11.6 -24.0°
Sets 04:34:28 0° 133° (SE) 4,710 12.3 -23.4°
